Effective Sunday, March 17, 2024, the National Weather Service National Data Buoy Center will discontinue its Dial-A-Buoy Interactive Voice Response system. For more information, see Service Change Notice 24-06 (PDF).

Station GTRM4 - Superior Grand Traverse Bay, MI Image indicating link to RSS feed of recent meteorological observations for station GTRM4


Conditions at GTRM4 as of
(12:00 am EST)
0500 GMT on 02/25/2024:
     

Click on the graph icon in the table below to see a time series plot of the last five days of that observation.

5-day plot - Wind Direction Wind Direction (WDIR):WSW ( 240 deg true )
5-day plot - Wind Speed Wind Speed (WSPD): 4.1 kts
5-day plot - Wind Gust Wind Gust (GST): 9.9 kts
5-day plot - Atmospheric Pressure Atmospheric Pressure (PRES):29.59 in
5-day plot - Pressure Tendency Pressure Tendency (PTDY):-0.06 in ( Falling )
5-day plot - Air Temperature Air Temperature (ATMP): 31.6 °F
5-day plot - Wind Chill Wind Chill (CHILL): 27.0 °F
5-day plot - Wind Speed at 10 Meters Wind Speed at 10 meters (WSPD10M): 3.9 kts
5-day plot - Wind Speed at 20 Meters Wind Speed at 20 meters (WSPD20M): 3.9 kts
5-day plot -  Wind Speed, Wind Gust and Atmospheric Pressure Combined plot of Wind Speed, Gust, and Air Pressure
Previous observations
TIME
(EST)
5-day plot - Wind Direction
WDIR
 
5-day plot - Wind Speed
WSPD
kts
5-day plot - Wind Gust
GST
kts
5-day plot - Wave Height
WVHT
ft
5-day plot - Dominant Wave Period
DPD
sec
5-day plot - Average Wave Period
APD
sec
5-day plot - Mean Wave Direction
MWD
 
5-day plot - Atmospheric Pressure
PRES
in
5-day plot - Pressure Tendency
PTDY
in
5-day plot - Air Temperature
ATMP
°F
5-day plot - Water Temperature
WTMP
°F
5-day plot - Dew Point
DEWP
°F
5-day plot - Salinity
SAL
psu
5-day plot - Visibility
VIS
nmi
5-day plot - Tide (above MLLW)
TIDE
ft
2024-02-24 11:50 pm SW 5.1 9.9----29.59- 31.8-----
2024-02-24 11:40 pm SW 5.1 9.9----29.60- 31.6-----
2024-02-24 11:30 pm SW 5.1 8.0----29.61- 31.8-----
2024-02-24 11:20 pmWSW 6.0 8.0----29.61- 31.8-----
2024-02-24 11:10 pmWSW 2.9 8.0----29.62- 31.5-----
2024-02-24 11:00 pmWSW 2.9 8.9----29.62-0.02 31.6-----
2024-02-24 10:50 pm SW 2.9 7.0----29.63- 31.6-----
2024-02-24 10:40 pm SW 2.9 8.0----29.63- 31.6-----
2024-02-24 10:30 pm SW 4.1 8.0----29.64- 31.8-----
2024-02-24 10:20 pmWSW 4.1 8.9----29.65- 32.0-----
2024-02-24 10:10 pm SW 4.1 8.9----29.65- 32.0-----
2024-02-24 10:00 pmWSW 5.1 8.0----29.65+0.00 32.0-----
2024-02-24 09:50 pmWSW 6.0 8.9----29.65- 32.0-----
2024-02-24 09:40 pm SW 5.1 8.9----29.65- 32.0-----
2024-02-24 09:30 pm SW 6.0 12.0----29.65- 32.5-----
2024-02-24 09:20 pm SW 4.1 8.9----29.65- 32.2-----
2024-02-24 09:10 pmSSW 4.1 8.0----29.65- 32.4-----
2024-02-24 09:00 pm SW 6.0 13.0----29.65-0.01 32.7-----
2024-02-24 08:50 pmWSW 6.0 8.9----29.65- 32.7-----
2024-02-24 08:40 pm SW 5.1 11.1----29.64- 32.7-----
2024-02-24 08:30 pm SW 4.1 11.1----29.64- 32.9-----
2024-02-24 08:20 pmWSW 5.1 13.0----29.65- 33.1-----
2024-02-24 08:10 pm SW 6.0 17.1----29.64- 33.3-----
2024-02-24 08:00 pmSSW 6.0 11.1----29.64-0.05 33.3-----
2024-02-24 07:50 pm SW 8.0 12.0----29.64- 33.6-----
2024-02-24 07:40 pm SW 6.0 12.0----29.65- 33.6-----
2024-02-24 07:30 pm SW 4.1 9.9----29.65- 33.8-----
2024-02-24 07:20 pm SW 5.1 9.9----29.65- 34.2-----
2024-02-24 07:10 pmWSW 2.9 11.1----29.65- 34.3-----
2024-02-24 07:00 pm SW 5.1 12.0----29.65-0.08 34.5-----
2024-02-24 06:50 pm SW 8.0 15.0----29.65- 35.1-----
2024-02-24 06:40 pm SW 6.0 15.0----29.65- 35.1-----
2024-02-24 06:30 pmSSW 5.1 15.0----29.65- 35.2-----
2024-02-24 06:20 pmSSW 7.0 14.0----29.65- 35.4-----
2024-02-24 06:10 pmSSW 6.0 15.0----29.66- 35.6-----
2024-02-24 06:00 pmSSW 7.0 15.0----29.66-0.11 36.0-----
2024-02-24 05:50 pm SW 6.0 17.1----29.66- 36.5-----
2024-02-24 05:40 pm SW 5.1 12.0----29.66- 36.3-----
2024-02-24 05:30 pmSSW 5.1 12.0----29.67- 36.1-----
2024-02-24 05:20 pmSSW 6.0 14.0----29.68- 36.7-----
2024-02-24 05:10 pmSSW 5.1 15.9----29.69- 36.9-----
2024-02-24 05:00 pm S 5.1 14.0----29.69-0.13 36.7-----
2024-02-24 04:50 pm S 5.1 15.0----29.70- 37.4-----
2024-02-24 04:40 pm S 5.1 14.0----29.70- 37.2-----
2024-02-24 04:30 pm S 5.1 13.0----29.71- 37.2-----
2024-02-24 04:20 pm S 7.0 13.0----29.71- 36.9-----
2024-02-24 04:10 pmSSW 2.9 9.9----29.72- 36.1-----
2024-02-24 04:00 pm S 7.0 13.0----29.73-0.13 35.1-----
2024-02-24 03:50 pm S 4.1 11.1----29.74- 35.2-----
2024-02-24 03:40 pm S 7.0 12.0----29.74- 34.3-----
2024-02-24 03:30 pmSSW 6.0 14.0----29.75- 34.2-----
2024-02-24 03:20 pmSSW 8.9 15.0----29.76- 34.0-----
2024-02-24 03:10 pm S 5.1 13.0----29.76- 34.2-----
2024-02-24 03:00 pm S 4.1 11.1----29.77-0.13 34.3-----
2024-02-24 02:50 pm S 6.0 14.0----29.79- 32.9-----
2024-02-24 02:40 pm SW 5.1 12.0----29.80- 32.9-----
2024-02-24 02:30 pm S 2.9 8.9----29.80- 33.8-----
2024-02-24 02:20 pm S 5.1 12.0----29.81- 32.4-----
2024-02-24 02:10 pmSSW 5.1 12.0----29.81- 30.9-----
2024-02-24 02:00 pm SW 4.1 8.9----29.82-0.12 30.0-----
2024-02-24 01:50 pmSSW 2.9 9.9----29.82- 30.9-----
2024-02-24 01:40 pm S 4.1 9.9----29.83- 30.0-----
2024-02-24 01:30 pm SW 7.0 12.0----29.84- 29.5-----
2024-02-24 01:20 pmWSW 8.0 14.0----29.85- 28.9-----
2024-02-24 01:10 pm W 7.0 14.0----29.86- 27.7-----
2024-02-24 01:00 pmWSW 6.0 9.9----29.86-0.10 27.9-----
2024-02-24 12:50 pm SW 2.9 8.9----29.87- 27.5-----
2024-02-24 12:40 pmWSW 7.0 11.1----29.88- 25.5-----
2024-02-24 12:30 pmWSW 8.0 13.0----29.88- 25.2-----
2024-02-24 12:20 pm SW 6.0 8.9----29.89- 24.4-----
2024-02-24 12:10 pmWSW 7.0 12.0----29.89- 24.3-----
2024-02-24 12:00 pm SW 7.0 13.0----29.90-0.09 23.0-----
2024-02-24 11:50 amWSW 8.9 13.0----29.90- 22.8-----
2024-02-24 11:40 am SW 5.1 12.0----29.91- 23.2-----
2024-02-24 11:30 am SW 7.0 8.9----29.91- 22.6-----
2024-02-24 11:20 amWSW 2.9 12.0----29.91- 22.1-----
2024-02-24 11:10 am SW 8.0 13.0----29.93- 21.2-----
2024-02-24 11:00 am SW 8.9 15.9----29.94-0.05 20.3-----
2024-02-24 10:50 amWSW 5.1 13.0----29.94- 21.2-----
2024-02-24 10:40 amWSW 8.9 15.0----29.94- 19.8-----
2024-02-24 10:30 amWSW 11.1 15.0----29.95- 19.4-----
2024-02-24 10:20 am SW 7.0 15.0----29.95- 18.9-----
2024-02-24 10:10 amSSW 5.1 9.9----29.96- 19.0-----
2024-02-24 10:00 am SW 7.0 9.9----29.96-0.04 17.6-----
2024-02-24 09:50 am SW 6.0 9.9----29.97- 16.7-----
2024-02-24 09:40 am SW 6.0 11.1----29.98- 16.3-----
2024-02-24 09:30 amWSW 6.0 9.9----29.98- 15.6-----
2024-02-24 09:20 amWSW 6.0 9.9----29.98- 14.7-----
2024-02-24 09:10 amWSW 4.1 8.0----29.99- 14.0-----
2024-02-24 09:00 am W 5.1 8.9----29.99-0.02 13.1-----
2024-02-24 08:50 amWSW 2.9 6.0----29.98- 12.9-----
2024-02-24 08:40 am SW 1.9 6.0----29.98- 12.0-----
2024-02-24 08:30 amWSW 2.9 6.0----29.99- 10.4-----
2024-02-24 08:20 amWSW 4.1 6.0----29.99- 9.3-----
2024-02-24 08:10 amWSW 2.9 5.1----29.99- 8.8-----
2024-02-24 08:00 am SW 1.9 4.1----29.99-0.02 7.9-----
2024-02-24 07:50 am SW 1.9 4.1----29.99- 7.3-----
2024-02-24 07:40 amWSW 2.9 5.1----29.99- 7.0-----
2024-02-24 07:30 amWSW 4.1 5.1----29.99- 7.0-----
2024-02-24 07:20 am SW 2.9 4.1----29.99- 7.5-----
2024-02-24 07:10 amWSW 2.9 5.1----29.99- 7.0-----
2024-02-24 07:00 amWSW 2.9 6.0----30.00-0.01 7.7-----
2024-02-24 06:50 am SW 1.9 4.1----30.00- 7.9-----
2024-02-24 06:40 am W 2.9 6.0----30.00- 7.9-----
2024-02-24 06:30 amWSW 4.1 5.1----29.99- 8.2-----
2024-02-24 06:20 amWSW 2.9 5.1----29.99- 8.4-----
2024-02-24 06:10 am W 4.1 7.0----30.00- 8.4-----
2024-02-24 06:00 am W 4.1 7.0----30.01-0.01 8.4-----
2024-02-24 05:50 am W 4.1 7.0----30.00- 8.6-----
2024-02-24 05:40 am W 4.1 7.0----30.01- 8.2-----
2024-02-24 05:30 am W 2.9 6.0----30.01- 8.1-----
2024-02-24 05:20 am W 2.9 6.0----30.01- 8.4-----
2024-02-24 05:10 am W 4.1 6.0----30.01- 8.4-----
2024-02-24 05:00 am W 2.9 5.1----30.01-0.02 8.2-----
2024-02-24 04:50 am W 4.1 6.0----30.01- 8.2-----
2024-02-24 04:40 am W 4.1 6.0----30.01- 7.9-----
2024-02-24 04:30 am W 2.9 5.1----30.01- 7.9-----
2024-02-24 04:20 am W 1.9 4.1----30.01- 7.3-----
2024-02-24 04:10 amWNW 2.9 5.1----30.01- 7.9-----
2024-02-24 04:00 am W 2.9 6.0----30.01-0.03 8.2-----
2024-02-24 03:50 am W 4.1 8.9----30.01- 8.8-----
2024-02-24 03:40 am W 4.1 8.0----30.02- 9.1-----
2024-02-24 03:30 am W 4.1 8.9----30.02- 9.1-----
2024-02-24 03:20 am W 5.1 7.0----30.02- 9.0-----
2024-02-24 03:10 am W 5.1 7.0----30.02- 8.8-----
2024-02-24 03:00 am W 5.1 8.0----30.02-0.01 9.0-----
2024-02-24 02:50 am W 5.1 7.0----30.03- 7.9-----
2024-02-24 02:40 am W 2.9 5.1----30.03- 7.7-----
2024-02-24 02:30 am W 4.1 6.0----30.03- 8.2-----
2024-02-24 02:20 am W 4.1 6.0----30.03- 8.1-----
2024-02-24 02:10 am W 4.1 6.0----30.03- 7.9-----
2024-02-24 02:00 am W 4.1 7.0----30.03+0.00 7.7-----
2024-02-24 01:50 am W 5.1 6.0----30.03- 7.0-----
2024-02-24 01:40 am W 4.1 6.0----30.04- 7.0-----
2024-02-24 01:30 am W 4.1 6.0----30.04- 6.8-----
2024-02-24 01:20 am W 4.1 6.0----30.04- 6.4-----
2024-02-24 01:10 am W 4.1 6.0----30.04- 6.8-----
2024-02-24 01:00 am W 5.1 7.0----30.04-0.01 7.0-----
2024-02-24 12:50 amWNW 4.1 6.0----30.04- 6.3-----
2024-02-24 12:40 am W 2.9 6.0----30.03- 6.6-----
2024-02-24 12:30 am W 4.1 5.1----30.03- 6.6-----
2024-02-24 12:20 am W 2.9 5.1----30.03- 6.8-----
2024-02-24 12:10 amWSW 2.9 6.0----30.03- 6.8-----
2024-02-24 12:00 am W 4.1 6.0----30.03-0.01 6.8-----
2024-02-23 11:50 pm W 4.1 6.0----30.04- 7.5-----